date,time,DOY,LWin_1_1_1,LWout_1_1_1,SWin_1_1_1,SWout_1_1_1,Rn_1_1_1
[yyyy-mm-dd],[HH:MM],[ddd.ddd],[W/m^2],[W/m^2],[W/m^2],[W/m^2],[W/m^2]
2019-06-21,00:30,172.020,328.39999999999998,421.00000000000000,55.320000000000000,3.2599999999999998,-40.530000000000001
2019-06-21,01:00,172.041,327.60000000000002,416.89999999999998,43.930000000000000,2.7900000000000000,-48.119999999999997
2019-06-21,01:30,172.062,328.60000000000002,413.60000000000002,28.039999999999999,2.6299999999999999,-59.520000000000003
2019-06-21,02:00,172.083,319.60000000000002,410.00000000000000,0.93999999999999995,2.0899999999999999,-91.599999999999994
2019-06-21,02:30,172.104,315.00000000000000,406.69999999999999,-5.6100000000000003,2.3799999999999999,-99.700000000000003
2019-06-21,03:00,172.124,312.50000000000000,403.50000000000000,-5.8799999999999999,2.3100000000000001,-99.200000000000003
2019-06-21,03:30,172.145,310.60000000000002,401.30000000000001,-5.3200000000000003,2.6600000000000001,-98.700000000000003
2019-06-21,04:00,172.166,311.10000000000002,399.50000000000000,-5.2300000000000004,2.6499999999999999,-96.299999999999997
2019-06-21,04:30,172.187,305.50000000000000,397.60000000000002,-5.4500000000000002,2.7900000000000000,-100.40000000000001
2019-06-21,05:00,172.208,304.89999999999998,396.30000000000001,-4.9199999999999999,3.2300000000000000,-99.500000000000000
2019-06-21,05:30,172.229,302.69999999999999,394.80000000000001,-5.3700000000000001,2.8199999999999998,-100.30000000000000
2019-06-21,06:00,172.249,299.80000000000001,393.39999999999998,-5.2199999999999998,3.1200000000000001,-101.80000000000000
2019-06-21,06:30,172.270,298.19999999999999,392.10000000000002,-5.2400000000000002,3.1000000000000001,-102.30000000000000
2019-06-21,07:00,172.291,296.19999999999999,390.69999999999999,-5.2400000000000002,3.0800000000000001,-102.90000000000001
2019-06-21,07:30,172.312,295.89999999999998,389.69999999999999,-5.0199999999999996,3.2599999999999998,-102.09999999999999
2019-06-21,08:00,172.333,295.19999999999999,388.80000000000001,-4.9900000000000002,3.2799999999999998,-101.90000000000001
2019-06-21,08:30,172.354,294.39999999999998,387.89999999999998,-5.1100000000000003,3.1899999999999999,-101.70000000000000
2019-06-21,09:00,172.374,293.89999999999998,386.89999999999998,-4.9699999999999998,3.2599999999999998,-101.20000000000000
2019-06-21,09:30,172.395,293.60000000000002,386.19999999999999,-4.9000000000000004,3.3300000000000001,-100.80000000000000
2019-06-21,10:00,172.416,293.69999999999999,385.50000000000000,-4.5599999999999996,3.2700000000000000,-99.700000000000003
2019-06-21,10:30,172.437,300.30000000000001,385.39999999999998,1.1000000000000001,3.4700000000000002,-87.400000000000006
2019-06-21,11:00,172.458,309.19999999999999,385.89999999999998,19.920000000000002,4.0000000000000000,-60.850000000000001
2019-06-21,11:30,172.479,299.30000000000001,386.00000000000000,27.730000000000000,4.5400000000000000,-63.530000000000001
2019-06-21,12:00,172.499,301.50000000000000,386.69999999999999,41.390000000000001,5.5400000000000000,-49.420000000000002
2019-06-21,12:30,172.520,308.00000000000000,388.50000000000000,110.90000000000001,6.4500000000000002,23.969999999999999
2019-06-21,13:00,172.541,308.10000000000002,391.30000000000001,217.59999999999999,8.6999999999999993,125.80000000000000
2019-06-21,13:30,172.562,313.69999999999999,398.10000000000002,423.39999999999998,22.370000000000001,316.60000000000002
2019-06-21,14:00,172.583,321.39999999999998,406.89999999999998,503.39999999999998,23.559999999999999,394.30000000000001
2019-06-21,14:30,172.604,326.89999999999998,412.10000000000002,592.60000000000002,19.370000000000001,488.00000000000000
2019-06-21,15:00,172.624,330.19999999999999,416.00000000000000,666.39999999999998,20.920000000000002,559.70000000000005
2019-06-21,15:30,172.645,335.80000000000001,420.19999999999999,743.89999999999998,20.190000000000001,639.20000000000005
2019-06-21,16:00,172.666,338.50000000000000,421.30000000000001,755.29999999999995,18.579999999999998,654.00000000000000
2019-06-21,16:30,172.687,341.60000000000002,428.00000000000000,869.00000000000000,20.620000000000001,762.00000000000000
2019-06-21,17:00,172.708,346.69999999999999,430.80000000000001,899.00000000000000,18.690000000000001,796.20000000000005
2019-06-21,17:30,172.729,354.89999999999998,429.00000000000000,758.29999999999995,16.440000000000001,667.70000000000005
2019-06-21,18:00,172.749,355.89999999999998,432.10000000000002,822.00000000000000,18.340000000000000,727.00000000000000
2019-06-21,18:30,172.770,353.39999999999998,436.19999999999999,915.00000000000000,19.780000000000001,812.00000000000000
2019-06-21,19:00,172.791,359.89999999999998,438.30000000000001,786.60000000000002,15.960000000000001,692.20000000000005
2019-06-21,19:30,172.812,355.30000000000001,440.00000000000000,811.00000000000000,18.420000000000002,708.10000000000002
2019-06-21,20:00,172.833,353.10000000000002,442.19999999999999,712.79999999999995,15.660000000000000,608.00000000000000
2019-06-21,20:30,172.854,353.10000000000002,442.39999999999998,670.50000000000000,15.820000000000000,565.39999999999998
2019-06-21,21:00,172.874,351.69999999999999,441.80000000000001,600.00000000000000,13.080000000000000,496.80000000000001
2019-06-21,21:30,172.895,351.69999999999999,440.39999999999998,465.50000000000000,11.529999999999999,365.30000000000001
2019-06-21,22:00,172.916,353.30000000000001,443.10000000000002,429.00000000000000,14.830000000000000,324.30000000000001
2019-06-21,22:30,172.937,352.39999999999998,442.50000000000000,383.39999999999998,12.570000000000000,280.69999999999999
2019-06-21,23:00,172.958,353.50000000000000,439.69999999999999,311.19999999999999,8.5000000000000000,216.50000000000000
2019-06-21,23:30,172.979,355.00000000000000,437.10000000000002,187.30000000000001,4.9800000000000004,100.20000000000000
2019-06-22,00:00,173.000,355.80000000000001,433.00000000000000,126.70000000000000,3.7700000000000000,45.729999999999997
2019-06-22,00:30,173.020,352.89999999999998,428.69999999999999,74.870000000000005,2.8799999999999999,-3.7799999999999998
2019-06-22,01:00,173.041,355.00000000000000,424.89999999999998,44.759999999999998,2.3300000000000001,-27.469999999999999
2019-06-22,01:30,173.062,355.30000000000001,421.89999999999998,21.530000000000001,2.0800000000000001,-47.149999999999999
2019-06-22,02:00,173.083,347.69999999999999,418.30000000000001,1.5300000000000000,1.6000000000000001,-70.670000000000002
2019-06-22,02:30,173.104,341.80000000000001,414.80000000000001,-4.7199999999999998,1.8700000000000001,-79.549999999999997
2019-06-22,03:00,173.124,337.60000000000002,411.89999999999998,-4.4400000000000004,2.0699999999999998,-80.900000000000006
2019-06-22,03:30,173.145,343.50000000000000,410.39999999999998,-4.0499999999999998,2.2700000000000000,-73.219999999999999
2019-06-22,04:00,173.166,341.00000000000000,408.50000000000000,-4.2100000000000000,2.0400000000000000,-73.670000000000002
2019-06-22,04:30,173.187,331.00000000000000,406.19999999999999,-4.6699999999999999,2.2000000000000002,-82.000000000000000
2019-06-22,05:00,173.208,320.89999999999998,403.89999999999998,-5.1200000000000001,2.4900000000000002,-90.599999999999994
2019-06-22,05:30,173.229,314.89999999999998,401.89999999999998,-5.1600000000000001,2.7500000000000000,-94.900000000000006
2019-06-22,06:00,173.249,306.00000000000000,399.80000000000001,-5.5599999999999996,3.0400000000000000,-102.40000000000001
2019-06-22,06:30,173.270,313.19999999999999,398.60000000000002,-4.7599999999999998,3.0699999999999998,-93.299999999999997
2019-06-22,07:00,173.291,305.10000000000002,397.10000000000002,-5.2000000000000002,3.1000000000000001,-100.40000000000001
2019-06-22,07:30,173.312,297.10000000000002,395.10000000000002,-5.8399999999999999,3.0200000000000000,-106.80000000000000
2019-06-22,08:00,173.333,295.19999999999999,393.50000000000000,-5.5300000000000002,3.3300000000000001,-107.20000000000000
2019-06-22,08:30,173.354,293.10000000000002,392.00000000000000,-5.5700000000000003,3.2700000000000000,-107.70000000000000
2019-06-22,09:00,173.374,292.30000000000001,391.00000000000000,-4.9800000000000004,3.7700000000000000,-107.40000000000001
2019-06-22,09:30,173.395,291.19999999999999,390.19999999999999,-5.4800000000000004,3.4600000000000000,-108.00000000000000
2019-06-22,10:00,173.416,289.39999999999998,388.89999999999998,-5.2999999999999998,3.4300000000000002,-108.20000000000000
2019-06-22,10:30,173.437,286.89999999999998,387.69999999999999,-0.92000000000000004,3.6099999999999999,-105.20000000000000
2019-06-22,11:00,173.458,286.10000000000002,386.89999999999998,10.619999999999999,4.2100000000000000,-94.400000000000006
2019-06-22,11:30,173.479,284.60000000000002,386.60000000000002,22.079999999999998,5.0800000000000001,-85.099999999999994
2019-06-22,12:00,173.499,285.60000000000002,387.10000000000002,31.870000000000001,5.9800000000000004,-75.650000000000006
2019-06-22,12:30,173.520,288.39999999999998,388.50000000000000,69.599999999999994,6.9299999999999997,-37.390000000000001
2019-06-22,13:00,173.541,291.89999999999998,391.50000000000000,221.19999999999999,9.8399999999999999,111.80000000000000
2019-06-22,13:30,173.562,298.89999999999998,399.00000000000000,416.89999999999998,20.410000000000000,296.39999999999998
2019-06-22,14:00,173.583,305.69999999999999,407.10000000000002,565.29999999999995,23.129999999999999,440.80000000000001
2019-06-22,14:30,173.604,309.39999999999998,411.00000000000000,668.00000000000000,22.109999999999999,544.29999999999995
2019-06-22,15:00,173.624,312.80000000000001,415.60000000000002,745.10000000000002,21.320000000000000,621.00000000000000
2019-06-22,15:30,173.645,316.10000000000002,417.60000000000002,811.00000000000000,19.420000000000002,690.29999999999995
2019-06-22,16:00,173.666,320.89999999999998,421.69999999999999,873.00000000000000,20.230000000000000,751.60000000000002
2019-06-22,16:30,173.687,326.10000000000002,425.30000000000001,924.00000000000000,19.559999999999999,805.00000000000000
2019-06-22,17:00,173.708,331.50000000000000,432.80000000000001,952.00000000000000,19.739999999999998,831.00000000000000
2019-06-22,17:30,173.729,334.89999999999998,433.89999999999998,976.00000000000000,19.559999999999999,857.00000000000000
2019-06-22,18:00,173.749,340.10000000000002,435.89999999999998,990.00000000000000,20.289999999999999,874.00000000000000
2019-06-22,18:30,173.770,345.50000000000000,439.89999999999998,936.00000000000000,18.879999999999999,822.00000000000000
2019-06-22,19:00,173.791,350.50000000000000,442.50000000000000,898.00000000000000,17.949999999999999,788.29999999999995
2019-06-22,19:30,173.812,354.89999999999998,448.39999999999998,828.00000000000000,17.800000000000001,717.10000000000002
2019-06-22,20:00,173.833,353.19999999999999,450.50000000000000,878.00000000000000,17.739999999999998,763.10000000000002
2019-06-22,20:30,173.854,356.19999999999999,455.60000000000002,774.29999999999995,12.270000000000000,662.70000000000005
2019-06-22,21:00,173.874,359.89999999999998,455.89999999999998,679.50000000000000,12.830000000000000,570.60000000000002
2019-06-22,21:30,173.895,358.19999999999999,454.00000000000000,622.10000000000002,13.420000000000000,512.89999999999998
2019-06-22,22:00,173.916,356.89999999999998,451.80000000000001,539.39999999999998,16.430000000000000,428.00000000000000
2019-06-22,22:30,173.937,357.30000000000001,448.00000000000000,414.10000000000002,20.020000000000000,303.39999999999998
2019-06-22,23:00,173.958,358.89999999999998,445.30000000000001,294.10000000000002,14.490000000000000,193.09999999999999
2019-06-22,23:30,173.979,358.69999999999999,439.30000000000001,180.50000000000000,6.3600000000000003,93.500000000000000
2019-06-23,00:00,174.000,366.50000000000000,436.10000000000002,129.00000000000000,4.4600000000000000,54.990000000000002
2019-06-23,00:30,174.020,362.00000000000000,433.60000000000002,103.30000000000000,4.3700000000000001,27.329999999999998
2019-06-23,01:00,174.041,355.19999999999999,429.30000000000001,41.930000000000000,1.9800000000000000,-34.070000000000000
2019-06-23,01:30,174.062,345.60000000000002,425.80000000000001,13.560000000000000,1.5900000000000001,-68.219999999999999
2019-06-23,02:00,174.083,341.50000000000000,421.80000000000001,1.6100000000000001,1.5400000000000000,-80.200000000000003
2019-06-23,02:30,174.104,346.30000000000001,418.50000000000000,-4.2800000000000002,1.8999999999999999,-78.420000000000002
2019-06-23,03:00,174.124,340.19999999999999,416.10000000000002,-4.7900000000000000,2.0600000000000001,-82.799999999999997
2019-06-23,03:30,174.145,354.80000000000001,414.39999999999998,-3.3300000000000001,1.9900000000000000,-64.920000000000002
2019-06-23,04:00,174.166,385.39999999999998,415.69999999999999,-1.0100000000000000,1.7400000000000000,-33.109999999999999
2019-06-23,04:30,174.187,388.89999999999998,416.10000000000002,-1.3100000000000001,1.2500000000000000,-29.739999999999998
2019-06-23,05:00,174.208,390.80000000000001,415.69999999999999,-1.6799999999999999,0.79000000000000004,-27.350000000000001
2019-06-23,05:30,174.229,389.10000000000002,414.60000000000002,-1.4800000000000000,0.92000000000000004,-27.879999999999999
2019-06-23,06:00,174.249,383.80000000000001,413.69999999999999,-1.9700000000000000,0.81000000000000005,-32.689999999999998
2019-06-23,06:30,174.270,388.39999999999998,412.80000000000001,-1.6799999999999999,0.72999999999999998,-26.780000000000001
2019-06-23,07:00,174.291,390.00000000000000,412.30000000000001,-1.4399999999999999,0.75000000000000000,-24.510000000000002
2019-06-23,07:30,174.312,391.30000000000001,411.80000000000001,-1.4099999999999999,0.65000000000000002,-22.480000000000000
2019-06-23,08:00,174.333,391.69999999999999,411.00000000000000,-1.2000000000000000,0.69999999999999996,-21.190000000000001
2019-06-23,08:30,174.354,392.30000000000001,410.50000000000000,-1.2100000000000000,0.63000000000000000,-20.059999999999999
2019-06-23,09:00,174.374,392.89999999999998,410.00000000000000,-1.1599999999999999,0.56000000000000005,-18.780000000000001
2019-06-23,09:30,174.395,390.60000000000002,409.30000000000001,-1.2700000000000000,0.54000000000000004,-20.500000000000000
2019-06-23,10:00,174.416,390.89999999999998,408.80000000000001,-1.3799999999999999,0.59999999999999998,-19.949999999999999
2019-06-23,10:30,174.437,388.80000000000001,408.10000000000002,0.40000000000000002,0.66000000000000003,-19.550000000000001
2019-06-23,11:00,174.458,387.89999999999998,407.69999999999999,8.0800000000000001,0.87000000000000000,-12.500000000000000
2019-06-23,11:30,174.479,386.10000000000002,407.60000000000002,38.600000000000001,1.8400000000000001,15.199999999999999
2019-06-23,12:00,174.499,389.19999999999999,408.10000000000002,58.630000000000003,2.0899999999999999,37.700000000000003
2019-06-23,12:30,174.520,394.10000000000002,409.39999999999998,110.90000000000001,3.6099999999999999,92.099999999999994
2019-06-23,13:00,174.541,398.60000000000002,410.50000000000000,123.30000000000000,3.5400000000000000,107.80000000000000
2019-06-23,13:30,174.562,398.00000000000000,410.60000000000002,93.099999999999994,2.3700000000000001,78.200000000000003
2019-06-23,14:00,174.583,396.50000000000000,409.80000000000001,80.700000000000003,2.1400000000000001,65.230000000000004
2019-06-23,14:30,174.604,398.30000000000001,411.10000000000002,138.90000000000001,3.9800000000000000,122.20000000000000
2019-06-23,15:00,174.624,399.50000000000000,412.89999999999998,190.30000000000001,5.2699999999999996,171.59999999999999
2019-06-23,15:30,174.645,391.30000000000001,416.10000000000002,314.30000000000001,8.6400000000000006,280.69999999999999
2019-06-23,16:00,174.666,402.60000000000002,419.10000000000002,248.30000000000001,5.4100000000000001,226.30000000000001
2019-06-23,16:30,174.687,404.39999999999998,418.39999999999998,129.80000000000001,2.4399999999999999,113.30000000000000
2019-06-23,17:00,174.708,401.30000000000001,415.39999999999998,53.070000000000000,1.4900000000000000,37.460000000000001
2019-06-23,17:30,174.729,399.60000000000002,412.80000000000001,29.410000000000000,1.9700000000000000,14.250000000000000
2019-06-23,18:00,174.749,399.69999999999999,411.30000000000001,39.789999999999999,2.1499999999999999,26.050000000000001
2019-06-23,18:30,174.770,397.10000000000002,411.19999999999999,154.90000000000001,6.1299999999999999,134.59999999999999
2019-06-23,19:00,174.791,402.50000000000000,413.00000000000000,166.09999999999999,6.5899999999999999,149.00000000000000
2019-06-23,19:30,174.812,403.80000000000001,414.00000000000000,150.40000000000001,5.9600000000000000,134.30000000000001
2019-06-23,20:00,174.833,405.60000000000002,414.89999999999998,148.09999999999999,5.6900000000000004,133.09999999999999
2019-06-23,20:30,174.854,407.89999999999998,415.10000000000002,98.500000000000000,3.8300000000000001,87.500000000000000
2019-06-23,21:00,174.874,408.60000000000002,415.19999999999999,117.40000000000001,4.6799999999999997,106.09999999999999
2019-06-23,21:30,174.895,410.60000000000002,417.30000000000001,225.50000000000000,8.5500000000000007,210.19999999999999
2019-06-23,22:00,174.916,403.69999999999999,416.60000000000002,101.80000000000000,4.1699999999999999,84.799999999999997
2019-06-23,22:30,174.937,405.50000000000000,415.80000000000001,55.270000000000003,2.5200000000000000,42.490000000000002
2019-06-23,23:00,174.958,403.69999999999999,414.80000000000001,24.539999999999999,1.7200000000000000,11.740000000000000
2019-06-23,23:30,174.979,405.19999999999999,413.60000000000002,27.270000000000000,1.7700000000000000,17.109999999999999
2019-06-24,00:00,175.000,403.89999999999998,412.69999999999999,23.480000000000000,1.5400000000000000,13.080000000000000
